Weather History for Stefansson Island, NT

Change the Weather History Date:

Tuesday, February 12, 2013

  Actual Average Record
Temperature  
Mean Temperature -38 °F -  
Max Temperature -34 °F - - ()
Min Temperature -41 °F - - ()
Degree Days  
Heating Degree Days 102    
Moisture  
Dew Point -45 °F    
Average Humidity 63    
Maximum Humidity 68    
Minimum Humidity 46    
Precipitation  
Precipitation 0.00 in - - ()
Sea Level Pressure  
Sea Level Pressure 29.86 in    
Wind  
Wind Speed 7 mph ()    
Max Wind Speed 10 mph    
Max Gust Speed -    
T = Trace of Precipitation, MM = Missing Value Source: Averaged Metar Reports

Daily Weather History Graph

Daily Weather History Graph

Search for Another Location

Airport:

Trip Planner

Search our weather history database for the weather conditions in past years. The results will help you decide how hot, cold, wet, or windy it might be!

Date:

Astronomy

Feb. 12, 2013 Rise Set
Actual Time 9:36 AM MST 2:55 PM MST
Civil Twilight 7:59 AM MST 4:32 PM MST
Nautical Twilight 6:29 AM MST 6:03 PM MST
Astronomical Twilight 5:03 AM MST 7:30 PM MST
Moon 7:41 AM MST (2/12) 9:21 PM MST (2/12)
Length of Visible Light 8h 33m
Length of Day
5h 19m
Waxing Crescent, 8% of the Moon is Illuminated
Feb 12
Waxing Crescent
Feb 17
First Quarter
Feb 25
Full
Mar 4
Last Quarter
Mar 11
New

Hourly Weather History & Observations

Time (MST) Temp. Windchill Dew Point Humidity Pressure Visibility Wind Dir Wind Speed Gust Speed Precip Events Conditions
12:00 AM -39.1 °F -55.5 °F -47.0 °F 64% 29.83 in - WNW 4.6 mph - N/A   Unknown
1:00 AM -38.9 °F -57.8 °F -46.7 °F 65% 29.83 in - West 5.8 mph - N/A   Unknown
2:00 AM -41.4 °F -60.7 °F -49.5 °F 63% 29.83 in - West 5.8 mph - N/A   Unknown
3:00 AM -38.0 °F -58.7 °F -45.8 °F 65% 29.84 in - West 6.9 mph - N/A   Unknown
4:00 AM -38.7 °F -59.6 °F -46.7 °F 64% 29.85 in - West 6.9 mph - N/A   Unknown
5:00 AM -39 °F - -47 °F 46% 29.85 in - West 6.9 mph - -  
5:00 AM -39.3 °F -60.2 °F -46.7 °F 66% 29.85 in - West 6.9 mph - N/A   Unknown
6:00 AM -40.7 °F -63.8 °F -48.6 °F 64% 29.86 in - West 8.1 mph - N/A   Unknown
7:00 AM -39.6 °F -64.1 °F -47.6 °F 64% 29.86 in - West 9.2 mph - N/A   Unknown
8:00 AM -40.2 °F -63.1 °F -48.1 °F 64% 29.87 in - West 8.1 mph - N/A   Unknown
9:00 AM -39.3 °F -62.0 °F -47.2 °F 64% 29.86 in - West 8.1 mph - N/A   Unknown
10:00 AM -38.0 °F -60.5 °F -45.6 °F 66% 29.86 in - West 8.1 mph - N/A   Unknown
11:00 AM -38 °F - -45 °F 48% 29.86 in - West 8.1 mph - -  
11:00 AM -37.7 °F -60.1 °F -45.4 °F 65% 29.86 in - West 8.1 mph - N/A   Unknown
12:00 PM -37.1 °F -59.4 °F -44.7 °F 66% 29.86 in - West 8.1 mph - N/A   Unknown
1:00 PM -36.0 °F -58.1 °F -43.4 °F 67% 29.86 in - WNW 8.1 mph - N/A   Unknown
2:00 PM -36.8 °F -60.5 °F -44.3 °F 66% 29.87 in - WNW 9.2 mph - N/A   Unknown
3:00 PM -36.6 °F -60.3 °F -44.1 °F 66% 29.88 in - WNW 9.2 mph - N/A   Unknown
4:00 PM -35.5 °F -59.0 °F -42.9 °F 67% 29.88 in - WNW 9.2 mph - N/A   Unknown
5:00 PM -35 °F - -43 °F 48% 29.88 in - West 10.4 mph - -  
5:00 PM -35.3 °F -60.1 °F -42.5 °F 68% 29.88 in - West 10.4 mph - N/A   Unknown
6:00 PM -36.0 °F -59.6 °F -43.4 °F 67% 29.88 in - WNW 9.2 mph - N/A   Unknown
7:00 PM -34.6 °F -59.2 °F -41.8 °F 68% 29.88 in - WNW 10.4 mph - N/A   Unknown
8:00 PM -34.4 °F -59.0 °F -41.6 °F 68% 29.88 in - WNW 10.4 mph - N/A   Unknown
9:00 PM -35.1 °F -59.9 °F -42.5 °F 67% 29.88 in - WNW 10.4 mph - N/A   Unknown
10:00 PM -35.1 °F -58.5 °F -42.5 °F 67% 29.88 in - WNW 9.2 mph - N/A   Unknown
11:00 PM -36 °F - -44 °F 46% 29.88 in - WNW 10.4 mph - -  
11:00 PM -36.4 °F -61.5 °F -44.0 °F 66% 29.88 in - WNW 10.4 mph - N/A   Unknown